Location: Alsip
(41.6689°N, 87.7387°W)
Time: 10:27:04
(UTC+00:00)

GEOS 3 Rocket - Pass Details

Date: 30 October 2020
Orbit: 770 x 850 km, 115.0° (Epoch: 25 November)

Event Time Altitude Azimuth Distance (km) Brightness Sun altitude
Exits shadow 02:42:58 16° 292° (WNW) 2,062 6.2 -43.7°
Drops below altitude 10° 02:44:16 10° 302° (WNW) 2,460 6.7 -43.9°
Sets 02:46:57 0° 314° (NW) 3,407 7.6 -44.4°
